This demonstration page uses our WeatherBlox Daily Observations layout. Learn more.

Left ArrowRight Arrow

39.51506, -84.39828

Hourly Observations for December 8, 2021

Temp ( °F °C ) Dew Point ( °F °C ) Humidity (%) Winds ( mph kmh ) Pressure ( in mb ) Visibility ( mi km ) Precip ( " mm )
12:15 am 00:15 Cloudy 25 -3.9 20 -6.4 83 83 SW 3 6 30.18 1022 10 16 N/A
12:35 am 00:35 Cloudy 25 -3.8 20 -6.5 82 82 SSW 5 7 30.17 1022 10 16 N/A
12:55 am 00:55 Cloudy 25 -3.8 21 -6.1 84 84 N N/A 30.17 1022 10 16 N/A
1:15 am 01:15 Cloudy with Light Snow 25 -3.8 21 -6.1 84 84 N N/A 30.17 1022 7 11 N/A
1:35 am 01:35 Cloudy with Light Snow 25 -3.9 22 -5.6 88 88 N N/A 30.16 1021 7 11 N/A
1:55 am 01:55 Cloudy 25 -3.9 22 -5.5 89 89 SW 3 6 30.15 1021 10 16 N/A
2:15 am 02:15 Cloudy 25 -3.9 22 -5.7 87 87 SSW 5 7 30.14 1021 10 16 N/A
2:35 am 02:35 Cloudy 25 -3.9 22 -5.5 89 89 SW 5 7 30.14 1021 10 16 N/A
2:55 am 02:55 Cloudy 25 -3.8 22 -5.4 89 89 SSW 5 7 30.14 1021 10 16 N/A
3:15 am 03:15 Cloudy 25 -3.8 22 -5.6 87 87 SSW 7 11 30.14 1021 10 16 N/A
3:35 am 03:35 Cloudy 25 -3.7 22 -5.4 88 88 SSW 7 11 30.13 1020 10 16 N/A
3:55 am 03:55 Cloudy 25 -3.7 22 -5.4 88 88 SSW 3 6 30.12 1020 10 16 N/A
4:15 am 04:15 Cloudy 26 -3.6 22 -5.3 88 88 SW 5 7 30.11 1019 10 16 N/A
4:35 am 04:35 Cloudy 26 -3.5 22 -5.3 88 88 SSW 5 7 30.08 1019 10 16 N/A
4:55 am 04:55 Cloudy 26 -3.4 22 -5.3 87 87 S 3 6 30.08 1019 10 16 N/A
5:15 am 05:15 Cloudy 26 -3.4 23 -5.2 88 88 SSW 3 6 30.08 1019 10 16 N/A
5:35 am 05:35 Cloudy 26 -3.3 23 -5.2 87 87 SW 7 11 30.07 1018 10 16 N/A
5:55 am 05:55 Cloudy 26 -3.3 23 -5.2 87 87 SSW 7 11 30.07 1018 10 16 N/A
6:15 am 06:15 Cloudy 26 -3.3 23 -5 88 88 WSW 6 9 30.08 1019 10 16 N/A
6:35 am 06:35 Cloudy 26 -3.2 24 -4.7 90 90 SW 9 15 30.07 1018 10 16 N/A
6:55 am 06:55 Cloudy 26 -3.1 24 -4.7 89 89 SSW 7 11 30.07 1018 10 16 N/A
7:15 am 07:15 Cloudy 27 -3 24 -4.6 89 89 WSW 7 11 30.08 1019 10 16 N/A
7:35 am 07:35 Mostly Cloudy 26 -3.3 24 -4.7 90 90 WSW 8 13 30.08 1019 10 16 N/A
7:55 am 07:55 Mostly Cloudy 26 -3.1 24 -4.6 90 90 WSW 5 7 30.07 1018 10 16 N/A
8:15 am 08:15 Cloudy 27 -3 24 -4.4 90 90 SW 7 11 30.07 1018 10 16 N/A
8:35 am 08:35 Cloudy 27 -2.8 24 -4.4 89 89 SSW 5 7 30.07 1018 10 16 N/A
8:55 am 08:55 Cloudy 27 -2.7 24 -4.3 89 89 SSW 6 9 30.07 1018 10 16 N/A
9:15 am 09:15 Cloudy 28 -2.5 24 -4.4 87 87 SW 5 7 30.08 1019 10 16 N/A
9:35 am 09:35 Mostly Cloudy 28 -2.4 24 -4.4 86 86 SW 7 11 30.07 1018 10 16 N/A
9:55 am 09:55 Partly Cloudy 29 -1.5 24 -4.3 81 81 WSW 9 15 30.07 1018 10 16 N/A
10:15 am 10:15 Partly Cloudy 30 -1 25 -3.8 82 82 WSW 8 13 30.07 1018 10 16 N/A
10:35 am 10:35 Partly Cloudy 31 -0.6 25 -3.7 80 80 SW 9 15 30.08 1019 10 16 N/A
10:55 am 10:55 Mostly Cloudy 33 0.3 26 -3.6 75 75 WSW 10 17 30.06 1018 10 16 N/A
11:15 am 11:15 Partly Cloudy 33 0.6 26 -3.5 74 74 SW 9 15 30.06 1018 10 16 N/A
11:35 am 11:35 Sunny 34 1.3 26 -3.6 70 70 WSW 13 20 30.05 1018 10 16 N/A
11:55 am 11:55 Partly Cloudy 35 1.7 25 -3.8 67 67 SW 9 15 30.04 1017 10 16 N/A
12:15 pm 12:15 Partly Cloudy 36 2.1 25 -4.1 64 64 SW 12 19 30.03 1017 10 16 N/A
12:35 pm 12:35 Sunny 37 2.5 24 -4.3 61 61 W 12 19 30.02 1017 10 16 N/A
12:55 pm 12:55 Sunny 38 3.1 25 -4.1 60 60 WSW 10 17 30.03 1017 10 16 N/A
1:15 pm 13:15 Partly Cloudy 37 3 24 -4.4 59 59 WSW 9 15 30.02 1016 10 16 N/A
1:35 pm 13:35 Partly Cloudy 38 3.6 25 -4.1 58 58 WSW 8 13 30.02 1016 10 16 N/A
1:55 pm 13:55 Partly Cloudy 38 3.4 24 -4.5 57 57 WSW 8 13 30.02 1016 10 16 N/A
2:15 pm 14:15 Partly Cloudy 39 3.9 23 -5.1 52 52 WSW 12 19 30.01 1016 10 16 N/A
2:35 pm 14:35 Sunny 39 4 23 -5.1 52 52 SW 13 20 30.01 1016 10 16 N/A
2:55 pm 14:55 Sunny 39 4 23 -5.2 52 52 SW 10 17 30.01 1016 10 16 N/A
3:15 pm 15:15 Partly Cloudy 40 4.6 21 -6 47 47 W 12 19 30.02 1017 10 16 N/A
3:35 pm 15:35 Mostly Cloudy 40 4.7 22 -5.7 47 47 W 10 17 30.02 1017 10 16 N/A
3:55 pm 15:55 Mostly Cloudy 41 5 22 -5.6 47 47 WNW 9 15 30.03 1017 10 16 N/A
4:15 pm 16:15 Partly Cloudy 40 4.3 22 -5.6 49 49 NW 12 19 30.03 1017 10 16 N/A
4:35 pm 16:35 Partly Cloudy 39 3.8 21 -6 49 49 WNW 8 13 30.04 1017 10 16 N/A
4:55 pm 16:55 Partly Cloudy 37 2.9 22 -5.7 54 54 WNW 7 11 30.05 1018 10 16 N/A
5:15 pm 17:15 Mostly Cloudy 36 2.2 22 -5.7 56 56 WNW 6 9 30.07 1018 10 16 N/A
5:35 pm 17:35 Mostly Cloudy 34 1.2 22 -5.8 60 60 WNW 6 9 30.08 1019 10 16 N/A
5:55 pm 17:55 Partly Cloudy 33 0.8 22 -5.7 62 62 NW 3 6 30.09 1019 10 16 N/A
6:15 pm 18:15 Clear 32 -0.1 24 -4.7 71 71 N N/A 30.11 1019 10 16 N/A
6:35 pm 18:35 Clear 29 -1.6 25 -4.1 83 83 WNW 3 6 30.12 1020 10 16 N/A
6:55 pm 18:55 Clear 29 -1.6 24 -4.4 81 81 N N/A 30.13 1020 10 16 N/A
7:15 pm 19:15 Clear 28 -2.4 24 -4.7 84 84 NE 3 6 30.12 1020 10 16 N/A
7:35 pm 19:35 Clear 27 -2.7 24 -4.6 87 87 N N/A 30.14 1021 10 16 N/A
7:55 pm 19:55 Clear 27 -2.7 23 -4.8 86 86 N N/A 30.14 1021 10 16 N/A
8:15 pm 20:15 Clear 27 -2.9 24 -4.5 89 89 N N/A 30.15 1021 10 16 N/A
8:35 pm 20:35 Clear 27 -3 23 -4.9 87 87 N N/A 30.15 1021 10 16 N/A

Powered by AerisWeather